www.pogodaiklimat.ru

Погода и климат >> Архив погоды >> Швейцария >> Виммис


ПОГОДА в Виммисе

  • Прогноз погоды в Виммисе
  • Монитор погоды в Виммисе

АРХИВ ПОГОДЫ в Виммисе

Время (UTC), дата Ветер
(напр.,м/с)
 
Видим.   Явления Облачность Т
(С)
Тd
(С)
f
(%)
Тe
(С)
Тes
(С)
Комфортность P
(гПа)
Po
(гПа)
Тmin
(С)
Tmax
(С)
R
(мм)
R24
(мм)
S
(см)
16 14.07 С 2
{6}
н/о н/о +23.1 +8.9 40 +24 +24 комфорт 1009.8 946.2
17 14.07 ЮВ 5
{8}
н/о н/о +20.4 +11.8 58 +22 +22 комфорт 1010.9 946.7
18 14.07 ЮЗ 4
{10}
н/о н/о +16.4 +13.1 81 +16 +16 1013.5 948.2 +24.4 13
19 14.07 С 1
{7}
н/о н/о +15.1 +13.8 92 +16 +16 1014.6 948.9 15
20 14.07 СЗ 2
{5}
н/о н/о +14.9 +13.2 90 +15 +15 1015.0 949.3 2
21 14.07 СЗ 4
{7}
н/о н/о +14.2 +13.0 92 +13 +13 1015.4 949.5 1
22 14.07 З 3
{7}
н/о н/о +13.8 +12.5 92 +13 +13 1015.5 949.5 0.1
23 14.07 З 4
{6}
н/о н/о +13.5 +12.1 91 +12 +12 1015.4 949.3 1
00 15.07 З 2
{7}
н/о н/о +12.9 +11.9 94 +12 +12 1015.3 949.1 3
01 15.07 З 2
{3}
н/о н/о +12.7 +11.8 94 +12 +12 1014.6 948.4 2
02 15.07 СЗ 1
{2}
н/о н/о +12.9 +12.0 94 +13 +13 1014.0 947.9 0.8
03 15.07 СЗ 2
{3}
н/о н/о +12.8 +11.9 94 +12 +12 1013.7 947.6
04 15.07 З 2
{3}
н/о н/о +13.1 +12.2 94 +13 +13 1013.9 947.8 0.3
05 15.07 СЗ 2
{4}
н/о н/о +13.2 +12.3 94 +13 +13 1013.9 947.8
06 15.07 ЮЗ 1
{4}
н/о н/о +13.1 +12.0 93 +13 +13 1014.1 948.0 +12.7
07 15.07 СЗ 1
{4}
н/о н/о +13.3 +12.4 94 +13 +13 1014.6 948.5 0.2
08 15.07 СЗ 2
{4}
н/о н/о +13.2 +12.0 92 +12 +12 1015.0 948.9
09 15.07 З 2
{4}
н/о н/о +14.1 +12.7 91 +14 +14 1015.0 949.1
10 15.07 СЗ 2
{3}
н/о н/о +15.0 +12.5 85 +15 +15 1014.9 949.2
11 15.07 ЮВ 2
{4}
н/о н/о +14.3 +12.5 89 +14 +14 1015.4 949.5
12 15.07 ЮЗ 2
{4}
н/о н/о +16.3 +12.9 80 +17 +17 1014.8 949.4
13 15.07 ЮВ 2
{3}
н/о н/о +16.5 +13.4 82 +17 +17 1015.0 949.6
14 15.07 ЮВ 1
{3}
н/о н/о +17.1 +13.7 80 +18 +18 1015.1 949.9
15 15.07 З 1
{3}
н/о н/о +18.2 +12.7 70 +20 +20 1014.8 949.8
16 15.07 ЮВ 1
{2}
н/о н/о +17.8 +13.7 77 +19 +19 1014.9 949.8
17 15.07 ЮВ 2
{3}
н/о н/о +17.2 +13.7 80 +18 +18 1015.2 950.0
18 15.07 ЮВ 2
{3}
н/о н/о +16.9 +13.5 80 +17 +17 1015.4 950.1 +18.2
19 15.07 Ю 1
{3}
н/о н/о +15.9 +13.7 87 +17 +17 1016.0 950.4
20 15.07 Ю 1
{2}
н/о н/о +15.5 +14.0 91 +17 +17 1016.6 950.9
21 15.07 Ю 1
{3}
н/о н/о +14.2 +13.5 96 +14 +14 1017.5 951.4
22 15.07 ЮВ 1
{2}
н/о н/о +14.5 +13.6 94 +16 +16 1017.5 951.5
23 15.07 Ю 1
{2}
н/о н/о +12.8 +12.4 97 +14 +14 1017.8 951.4
00 16.07 штиль 0
{3}
н/о н/о +12.1 +11.7 97 +11 +11 1018.2 951.6
01 16.07 С 1
{1}
н/о н/о +11.2 +10.9 98 +12 +12 1018.5 951.7
02 16.07 Ю 1
{1}
н/о н/о +10.2 +10.0 99 +10 +10 1018.7 951.6
03 16.07 З 1
{2}
н/о н/о +10.4 +10.2 99 +11 +11 1018.6 951.6
04 16.07 З 1
{2}
н/о н/о +9.8 +9.6 99 +10 +10 1018.8 951.6
05 16.07 СЗ 1
{2}
н/о н/о +10.8 +10.6 99 +11 +11 1018.6 951.7
06 16.07 С 2
{2}
н/о н/о +13.3 +12.6 96 +13 +13 1018.1 951.8 +9.3
07 16.07 СВ 1
{2}
н/о н/о +15.6 +12.8 83 +17 +17 1017.7 951.9
08 16.07 СВ 1
{3}
н/о н/о +17.9 +13.4 75 +19 +19 1016.9 951.7
09 16.07 С 1
{3}
н/о н/о +19.5 +13.1 66 +22 +22 комфорт 1016.4 951.6
10 16.07 СЗ 2
{3}
н/о н/о +21.3 +13.6 61 +24 +24 комфорт 1015.7 951.4
11 16.07 З 2
{5}
н/о н/о +22.5 +13.1 55 +25 +25 комфорт 1015.1 951.1
12 16.07 З 2
{7}
н/о н/о +23.9 +11.2 45 +25 +25 комфорт 1014.4 950.7
13 16.07 З 3
{7}
н/о н/о +24.5 +11.7 45 +26 +26 жарко 1013.7 950.2
14 16.07 З 2
{5}
н/о н/о +25.3 +11.5 42 +27 +27 жарко 1013.3 950.0
15 16.07 СЗ 2
{7}
н/о н/о +25.9 +9.9 36 +27 +27 жарко 1013.1 949.9
16 16.07 С 2
{5}
н/о н/о +26.3 +9.9 36 +27 +27 жарко 1012.6 949.6
17 16.07 СЗ 2
{4}
н/о н/о +25.4 +9.0 35 +26 +26 жарко 1012.7 949.5
18 16.07 З 2
{7}
н/о н/о +23.4 +12.1 49 +26 +26 жарко 1013.3 949.6 +26.3
19 16.07 ЮЗ 1
{4}
н/о н/о +21.1 +11.3 54 +23 +23 комфорт 1014.1 949.8
20 16.07 З 1
{2}
н/о н/о +17.6 +12.5 72 +19 +19 1015.2 950.1
21 16.07 З 1
{4}
н/о н/о +15.5 +11.8 79 +17 +17 1016.2 950.5
22 16.07 ЮЗ 1
{2}
н/о н/о +14.3 +11.7 84 +15 +15 1016.6 950.6
23 16.07 ЮЗ 1
{2}
н/о н/о +13.3 +11.1 87 +13 +13 1016.9 950.7
00 17.07 ЮЗ 1
{4}
н/о н/о +12.5 +10.8 89 +13 +13 1017.1 950.7
01 17.07 Ю 1
{2}
н/о н/о +11.9 +10.6 92 +13 +13 1017.1 950.5
02 17.07 Ю 1
{2}
н/о н/о +11.7 +10.4 92 +12 +12 1016.7 950.1
03 17.07 ЮЗ 1
{2}
н/о н/о +10.9 +9.9 94 +11 +11 1016.8 950.0
04 17.07 З 1
{2}
н/о н/о +10.8 +9.9 94 +10 +10 1016.8 950.0
05 17.07 Ю 1
{1}
н/о н/о +11.6 +10.8 95 +11 +11 1016.3 949.7
06 17.07 С 1
{2}
н/о н/о +15.1 +11.8 81 +16 +16 1015.4 949.7 +10.3
07 17.07 В 1
{2}
н/о н/о +17.7 +11.9 69 +19 +19 1014.7 949.6
08 17.07 С 1
{2}
н/о н/о +20.0 +12.3 61 +23 +23 комфорт 1014.0 949.5
09 17.07 С 1
{3}
н/о н/о +22.6 +12.8 54 +25 +25 комфорт 1013.2 949.3
10 17.07 С 2
{4}
н/о н/о +23.9 +11.0 44 +25 +25 комфорт 1012.7 949.1
11 17.07 СЗ 2
{5}
н/о н/о +25.5 +11.8 42 +27 +27 жарко 1012.0 948.8
12 17.07 СВ 2
{6}
н/о н/о +25.8 +9.9 37 +27 +27 жарко 1011.5 948.4
13 17.07 СЗ 3
{5}
н/о н/о +25.8 +10.7 39 +27 +27 жарко 1011.1 948.0
14 17.07
{5}
н/о н/о +25.8 +9.3 35 1010.9 947.9
15 17.07 СЗ 2
{5}
н/о н/о +26.2 +9.4 35 +27 +27 жарко 1010.5 947.6
16 17.07 СЗ 2
{4}
н/о н/о +26.4 +9.1 34 +27 +27 жарко 1010.0 947.1
17 17.07 ЮЗ 1
{4}
н/о н/о +25.1 +12.4 45 +27 +27 жарко 1010.0 946.9
18 17.07 ЮЗ 1
{5}
н/о н/о +24.9 +12.7 47 +27 +27 жарко 1010.1 946.9 +26.9
19 17.07 З 3
{4}
н/о н/о +21.3 +13.0 59 +24 +24 комфорт 1011.0 947.0
20 17.07 С 1
{4}
н/о н/о +19.9 +10.5 55 +22 +22 комфорт 1012.1 947.7
21 17.07 штиль 0
{4}
н/о н/о +17.3 +10.7 65 +17 +17 1013.2 948.1
22 17.07 З 1
{2}
н/о н/о +16.0 +10.3 69 +17 +17 1013.6 948.2
23 17.07 З 1
{1}
н/о н/о +14.0 +10.8 81 +15 +15 1014.2 948.3
00 18.07 З 1
{4}
н/о н/о +13.4 +10.4 82 +14 +14 1014.3 948.3
01 18.07 З 1
{1}
н/о н/о +13.4 +10.6 83 +14 +14 1014.3 948.3
02 18.07 З 1
{1}
н/о н/о +13.3 +10.8 85 +14 +14 1014.4 948.3
03 18.07 ЮЗ 1
{2}
н/о н/о +12.2 +10.2 88 +13 +13 1014.8 948.4
04 18.07 СЗ 1
{2}
н/о н/о +12.5 +10.6 88 +13 +13 1014.8 948.5
05 18.07 ЮЗ 1
{1}
н/о н/о +11.8 +10.1 89 +12 +12 1015.3 948.8
06 18.07 ЮВ 1
{2}
н/о н/о +15.8 +11.0 73 +17 +17 1014.6 949.1 +11.8
07 18.07 Ю 2
{3}
н/о н/о +18.7 +10.4 58 +20 +20 1014.0 949.2
08 18.07 Ю 1
{3}
н/о н/о +19.8 +10.9 56 +23 +23 комфорт 1013.9 949.3
09 18.07 В 1
{3}
н/о н/о +22.4 +10.2 46 +24 +24 комфорт 1013.0 949.1
10 18.07 СЗ 1
{3}
н/о н/о +24.0 +8.3 37 +25 +25 комфорт 1012.6 949.1
11 18.07 ЮВ 2
{4}
н/о н/о +25.1 +8.4 35 +26 +26 жарко 1012.0 948.7
12 18.07 СЗ 2
{4}
н/о н/о +25.6 +7.2 31 +26 +26 жарко 1011.6 948.5
13 18.07 С 2
{5}
н/о н/о +26.4 +7.4 30 +26 +26 жарко 1011.1 948.2
14 18.07 С 2
{5}
н/о н/о +26.8 +7.0 28 +26 +26 жарко 1010.8 948.0
15 18.07 С 3
{5}
н/о н/о +26.8 +7.4 29 +26 +26 жарко 1010.6 947.8
16 18.07 СЗ 2
{6}
н/о н/о +25.9 +9.3 35 +26 +26 жарко 1010.8 947.8
17 18.07 СЗ 3
{5}
н/о н/о +24.8 +9.1 37 +25 +25 комфорт 1011.3 948.0
18 18.07 З 2
{6}
н/о н/о +23.1 +11.8 49 +26 +26 жарко 1012.1 948.4 +26.8
19 18.07 ЮЗ 1
{2}
н/о н/о +21.6 +12.1 55 +24 +24 комфорт 1013.0 948.9
20 18.07 З 1
{3}
н/о н/о +17.9 +12.5 71 +20 +20 1014.5 949.5
21 18.07 штиль 0
{3}
н/о н/о +18.9 +11.9 64 +20 +20 1014.8 950.0
22 18.07 СЗ 1
{3}
н/о н/о +17.1 +12.6 75 +19 +19 1015.5 950.2
23 18.07 штиль 0
{2}
н/о н/о +15.1 +12.2 83 +15 +15 1016.4 950.6
00 19.07 ЮЗ 1
{3}
н/о н/о +14.6 +12.3 86 +16 +16 1016.7 950.8
01 19.07 З 1
{2}
н/о н/о +14.4 +11.9 85 +15 +15 1016.8 950.8
02 19.07 ЮЗ 1
{2}
н/о н/о +13.3 +11.4 88 +13 +13 1017.3 951.0
03 19.07 Ю 1
{2}
н/о н/о +12.9 +11.2 89 +13 +13 1017.5 951.1
04 19.07 штиль 0
{2}
н/о н/о +13.1 +11.4 89 +13 +13 1017.5 951.2
05 19.07 штиль 0
{2}
н/о н/о +13.3 +11.9 91 +13 +13 1017.6 951.3
06 19.07 ЮЗ 1
{2}
н/о н/о +16.1 +12.2 78 +17 +17 1017.2 951.6 +12.7
07 19.07 ЮВ 1
{2}
н/о н/о +18.6 +11.7 64 +21 +21 комфорт 1016.6 951.6
08 19.07 В 1
{2}
н/о н/о +20.8 +11.5 55 +24 +24 комфорт 1016.3 951.8
09 19.07 СЗ 2
{3}
н/о н/о +22.4 +12.4 53 +25 +25 комфорт 1015.7 951.6
10 19.07 СЗ 2
{4}
н/о н/о +23.8 +12.8 50 +26 +26 жарко 1015.2 951.4
11 19.07 С 3
{5}
н/о н/о +24.9 +12.7 47 +27 +27 жарко 1014.6 951.1
12 19.07 СВ 2
{8}
н/о н/о +25.8 +13.1 45 +28 +28 жарко 1013.9 950.7
13 19.07 С 2
{5}
н/о н/о +26.4 +12.3 42 +28 +28 жарко 1013.5 950.4
14 19.07 СЗ 2
{5}
н/о н/о +26.8 +12.2 40 +28 +28 жарко 1013.1 950.1
15 19.07 СЗ 2
{6}
н/о н/о +27.7 +12.5 39 +29 +29 жарко 1012.5 949.8
16 19.07 С 1
{4}
н/о н/о +27.6 +10.9 35 +28 +28 жарко 1012.2 949.5
17 19.07 З 1
{4}
н/о н/о +27.4 +10.8 35 +28 +28 жарко 1012.1 949.3
18 19.07 ЮЗ 2
{6}
н/о н/о +25.6 +14.1 49 +28 +28 жарко 1012.4 949.2 +27.7
19 19.07 З 1
{3}
н/о н/о +23.4 +13.2 53 +27 +27 душно 1013.1 949.4
20 19.07 Ю 1
{4}
н/о н/о +20.0 +13.6 67 +24 +24 комфорт 1014.6 950.0
21 19.07 ЮЗ 1
{4}
н/о н/о +17.8 +13.0 73 +19 +19 1015.3 950.2
22 19.07 ЮЗ 1
{1}
н/о н/о +17.2 +13.1 77 +19 +19 1015.8 950.5
23 19.07 ЮЗ 1
{2}
н/о н/о +15.6 +12.8 83 +16 +16 1016.2 950.5
00 20.07 ЮЗ 1
{4}
н/о н/о +14.9 +12.2 84 +15 +15 1016.0 950.2
01 20.07 ЮЗ 1
{2}
н/о н/о +14.2 +12.0 87 +15 +15 1016.1 950.1
02 20.07 ЮЗ 1
{2}
н/о н/о +14.1 +11.9 87 +15 +15 1016.2 950.2
03 20.07 З 1
{2}
н/о н/о +13.7 +11.6 87 +15 +15 1016.4 950.3
04 20.07 штиль 0
{2}
н/о н/о +13.6 +11.6 88 +13 +13 1016.4 950.3
05 20.07 С 1
{2}
н/о н/о +15.2 +12.3 83 +16 +16 1016.4 950.6
06 20.07 штиль 0
{2}
н/о н/о +17.7 +12.4 71 +18 +18 1016.0 950.8 +12.9
07 20.07 З 1
{1}
н/о н/о +19.1 +13.7 71 +22 +22 комфорт 1015.9 951.1
08 20.07 СЗ 1
{2}
н/о н/о +22.1 +13.7 59 +25 +25 комфорт 1015.1 951.0
09 20.07 С 2
{3}
н/о н/о +24.6 +12.1 46 +26 +26 жарко 1014.5 951.0
10 20.07 С 1
{3}
н/о н/о +26.0 +14.1 48 +28 +28 жарко 1014.3 951.1
11 20.07 СЗ 2
{5}
н/о н/о +27.4 +14.2 44 +30 +30 жарко 1013.9 951.0
12 20.07 СЗ 4
{9}
н/о н/о +29.0 +12.1 35 +30 +30 жарко 1013.1 950.6
13 20.07 СЗ 5
{11}
н/о н/о +28.9 +10.7 32 +29 +29 жарко 1013.0 950.5
14 20.07 СЗ 5
{10}
н/о н/о +27.7 +11.7 37 +29 +29 жарко 1013.5 950.7
15 20.07 СВ 2
{11}
н/о н/о +28.8 +11.7 35 +30 +30 жарко 1013.4 950.8
16 20.07 СЗ 2
{5}
н/о н/о +28.8 +11.3 34 +29 +29 жарко 1013.1 950.6
17 20.07 С 1
{3}
н/о н/о +28.4 +11.9 36 +29 +29 жарко 1013.2 950.6
18 20.07 Ю 2
{11}
н/о н/о +24.6 +17.6 65 +29 +29 душно 1014.3 950.8 +29.3
19 20.07 Ю 1
{2}
н/о н/о +22.9 +16.7 68 +28 +28 душно 1015.1 951.2
20 20.07 Ю 1
{2}
н/о н/о +20.0 +15.8 77 +24 +24 комфорт 1016.6 951.9
21 20.07 З 1
{2}
н/о н/о +19.6 +15.2 76 +23 +23 комфорт 1017.1 952.3
22 20.07 З 1
{2}
н/о н/о +20.4 +15.1 72 +25 +25 комфорт 1017.3 952.7
23 20.07 СВ 1
{4}
н/о н/о +19.4 +15.3 77 +23 +23 комфорт 1018.1 953.2
00 21.07 СЗ 1
{4}
н/о н/о +19.8 +15.4 76 +24 +24 комфорт 1018.2 953.4
01 21.07 Ю 1
{2}
н/о н/о +18.9 +15.3 80 +21 +21 комфорт 1018.7 953.6
02 21.07 Ю 2
{3}
н/о н/о +19.8 +14.5 71 +23 +23 комфорт 1019.1 954.2
03 21.07 З 2
{5}
н/о н/о +20.0 +14.1 69 +23 +23 комфорт 1018.9 954.1
04 21.07 штиль 0
{5}
н/о н/о +20.2 +14.4 69 +22 +22 комфорт 1019.5 954.7
05 21.07 С 1
{5}
н/о н/о +18.3 +16.2 88 +20 +20 1021.3 955.9 0.9
06 21.07 ЮЗ 2
{5}
н/о н/о +17.7 +16.7 94 +18 +18 1022.2 956.6 +17.8 2
07 21.07 В 1
{3}
н/о н/о +19.2 +17.1 88 +23 +23 комфорт 1021.9 956.7
08 21.07 В 2
{3}
н/о н/о +19.9 +16.6 81 +23 +23 комфорт 1022.3 957.2
09 21.07 ЮВ 2
{3}
н/о н/о +22.0 +16.4 71 +26 +26 душно 1021.7 957.1
10 21.07 СВ 2
{4}
н/о н/о +23.8 +15.7 60 +27 +27 жарко 1021.2 957.1
11 21.07 Ю 2
{3}
н/о н/о +24.6 +16.8 62 +28 +28 душно 1020.9 957.0
12 21.07 Ю 2
{4}
н/о н/о +26.0 +17.3 59 +30 +30 душно 1020.2 956.6
13 21.07 Ю 2
{4}
н/о н/о +26.2 +16.8 56 +30 +30 душно 1019.7 956.2
14 21.07 ЮВ 1
{4}
н/о н/о +27.8 +16.0 49 +31 +31 душно 1018.8 955.7
15 21.07 ЮЗ 3
{5}
н/о н/о +28.2 +17.0 51 +32 +32 душно 1018.5 955.5
16 21.07 СЗ 3
{6}
н/о н/о +28.9 +12.7 37 +30 +30 жарко 1018.2 955.4

 

Местоположение метеостанции Виммис (Швейцария): широта 46.77 долгота 7.65 высота над уровнем моря 630 м.

В архиве по умолчанию представлена погода в Виммисе за последнюю неделю. Архивные данные за месяц целиком и за предыдущие месяцы, начиная с января 2011 года, Вы можете получить, выбрав интересующий диапазон дат из раскрывающегося списка и нажав кнопку "Ввод!".


*Определитесь, кто Вы:
робот инопланетянин человек

Внимание! Время в таблицах - всемирное. Для получения местного времени необходимо прибавить поправку, которая равна 1 ч.

Смотрите также архив погоды в соседних городах и на ближайших метеорологических станциях:

Погода во Фрутигене (Швейцария) (19 км)
Погода в Интерлакене (Швейцария) (20 км)
Погода в Лангнау-им-Эмментале (Швейцария) (21 км)
Погода в Берне (Швейцария) (25 км)
Погода в Больтигене (Швейцария) (26 км)
Погода в Плаффайен-Обершроте (Швейцария) (29 км)
Погода в Адельбодене (Швейцария) (31 км)
Погода в Бриенце (Швейцария) (32 км)
Погода на Напфе (Швейцария) (33 км)
Погода в Шюпфхайме (Швейцария) (35 км)

Пояснения к столбцам:

Ветер - указаны скорость ветра в м/с - средняя за 10 мин, порывы в срок и между сроками (в фигурных скобках) и направление, откуда дует ветер: С - северный, СВ - северо-восточный, В - восточный, ЮВ - юго-восточный, Ю - южный, ЮЗ - юго-западный, З - западный, СЗ - северо-западный.
Видимость - горизонтальная дальность видимости в метрах или километрах. При видимости от 1 до 10 км при отсутствии осадков обычно наблюдается дымка, при ухудшении видимости до 1 км и менее - туман. В сухую погоду видимость может ухудшаться дымом, пылью или мглою.
Явления - указаны атмосферные явления, наблюдавшиеся в срок или в последний час перед сроком; фигурными скобками обозначены явления, наблюдавшиеся между сроками (за 1-3 часа до срока); квадратными скобками обозначены град или гололедные отложения с указанием их диаметра в мм.
Облачность - указаны через наклонную черту общая и нижняя облачность в баллах и высота нижней границы облаков в метрах; квадратными скобками обозначены формы облаков: Ci - перистые, Cs - перисто-слоистые, Cc - перисто-кучевые, Ac - высококучевые, As - высокослоистые, Sc - слоисто-кучевые, Ns - слоисто-дождевые, Cu - кучевые, Cb - кучево-дождевые. Подробнее классификацию облаков см. в Атласе облаков (PDF).
T - Температура воздуха - температура, измеренная на высоте 2 м над землей.
Td - Температура точки росы - температура, при понижении до которой содержащийся в воздухе водяной пар достигнет насыщения.
f - Относительная влажность воздуха - влажноcть воздуха, измеренная на высоте 2 м над землей.
Te - Эффективная температура - температура, которую ощущает одетый по сезону человек в тени. Характеристика душности погоды. При расчете учитывается влияние влажности воздуха и скорости ветра на теплоощущения человека.
Tes - Эффективная температура на солнце - температура, которую ощущает человек, с поправкой на солнечный нагрев. Характеристика знойности погоды. Зависит от высоты солнца над горизонтом, облачности и скорости ветра. Ночью, в пасмурную погоду, а также при ветре 12 м/с и более поправка равна нулю.
P - Атмосферное давление - приведенное к уровню моря атмосферное давление.
Po - Атмосферное давление - измеренное на уровне метеостанции атмосферное давление.
Tmin - Минимальная температура - минимум температуры воздуха на высоте 2 м над землей.
Tmax - Максимальная температура - максимум температуры воздуха на высоте 2 м над землей.
R - Количество осадков - Количество выпавших осадков за период времени, мм. При наведении курсора мыши на число - период времени, за который выпало указанное количество осадков.
R24 - Количество осадков - Количество выпавших осадков за 24 часа, мм.
S - Снежный покров - Высота снежного покрова, см. При наведении курсора мыши на число - состояние снежного покрова и степень покрытия местности в баллах.